,,Stat6,,Stat2,,Stat8,,Stat9,,Stat10,,Wind1,,Wind1,
time,status,PA1M_AVG,status,PR1M_SUM,status,RH1M_AVG,status,SR1M_AVG,status,TA1M_AVG,status,W1dAve1m,status,W1sAve1m,
2005-01-14, 00:00:00,VALID,918.01,VALID,0,VALID,100,VALID,0.0509425,VALID,20.0915,VALID,33,VALID,0.689787,
2005-01-14, 00:01:00,VALID,918.011,VALID,0,VALID,100,VALID,0.0509425,VALID,20.0783,VALID,35,VALID,0.795117,
2005-01-14, 00:02:00,VALID,918,VALID,0,VALID,100,VALID,0.0679233,VALID,20.0528,VALID,40,VALID,0.608854,
2005-01-14, 00:03:00,VALID,917.996,VALID,0,VALID,100,VALID,0.0509425,VALID,20.0331,VALID,41,VALID,0.615734,
2005-01-14, 00:04:00,VALID,917.99,VALID,0,VALID,100,VALID,0.0509425,VALID,20.011,VALID,42,VALID,0.579484,
2005-01-14, 00:05:00,VALID,917.995,VALID,0,VALID,100,VALID,0.0169808,VALID,19.9981,VALID,42,VALID,0.388207,
2005-01-14, 00:06:00,VALID,917.985,VALID,0,VALID,100,VALID,0.0169808,VALID,19.9916,VALID,42,VALID,0.291853,
2005-01-14, 00:07:00,VALID,917.988,VALID,0,VALID,100,VALID,0.0169808,VALID,19.9924,VALID,43,VALID,0.423735,
2005-01-14, 00:08:00,VALID,917.95,VALID,0,VALID,100,VALID,0,VALID,19.9859,VALID,44,VALID,0.271949,
2005-01-14, 00:09:00,VALID,917.934,VALID,0,VALID,100,VALID,0,VALID,19.9621,VALID,59,VALID,0.478819,
2005-01-14, 00:10:00,VALID,917.92,VALID,0,VALID,100,VALID,0.0169808,VALID,19.9559,VALID,72,VALID,0.352653,
2005-01-14, 00:11:00,VALID,917.895,VALID,0,VALID,100,VALID,0,VALID,19.9698,VALID,72,VALID,0.0946801,
2005-01-14, 00:12:00,VALID,917.894,VALID,0,VALID,100,VALID,0.0509425,VALID,19.9698,VALID,72,VALID,0.00305707,
2005-01-14, 00:13:00,VALID,917.876,VALID,0,VALID,100,VALID,0.0339617,VALID,19.9631,VALID,72,VALID,0.115371,
2005-01-14, 00:14:00,VALID,917.855,VALID,0,VALID,100,VALID,0.0339617,VALID,19.9397,VALID,72,VALID,0.0957961,
2005-01-14, 00:15:00,VALID,917.842,VALID,0,VALID,100,VALID,0.0509425,VALID,19.9203,VALID,72,VALID,0,
2005-01-14, 00:16:00,VALID,917.822,VALID,0,VALID,100,VALID,0.0339617,VALID,19.9203,VALID,72,VALID,0.11413,
2005-01-14, 00:17:00,VALID,917.804,VALID,0,VALID,100,VALID,0.0509425,VALID,19.9308,VALID,72,VALID,0.0450994,
2005-01-14, 00:18:00,VALID,917.794,VALID,0,VALID,100,VALID,0.0169808,VALID,19.9144,VALID,72,VALID,0.298277,
2005-01-14, 00:19:00,VALID,917.785,VALID,0,VALID,100,VALID,-0.0339617,VALID,19.8923,VALID,72,VALID,0.367543,
2005-01-14, 00:20:00,VALID,917.782,VALID,0,VALID,100,VALID,-0.0849042,VALID,19.8863,VALID,72,VALID,0.449673,
2005-01-14, 00:21:00,VALID,917.789,VALID,0,VALID,100,VALID,-0.0849042,VALID,19.8674,VALID,69,VALID,0.539435,
2005-01-14, 00:22:00,VALID,917.808,VALID,0,VALID,100,VALID,-0.0849042,VALID,19.8317,VALID,61,VALID,0.661222,
2005-01-14, 00:23:00,VALID,917.827,VALID,0,VALID,100,VALID,-0.0679233,VALID,19.8093,VALID,58,VALID,0.531994,
2005-01-14, 00:24:00,VALID,917.865,VALID,0,VALID,100,VALID,-0.101885,VALID,19.7835,VALID,58,VALID,0.352805,
2005-01-14, 00:25:00,VALID,917.876,VALID,0,VALID,100,VALID,-0.0679233,VALID,19.783,VALID,56,VALID,0.369284,
2005-01-14, 00:26:00,VALID,917.897,VALID,0,VALID,100,VALID,-0.0849042,VALID,19.7835,VALID,56,VALID,0.308594,
2005-01-14, 00:27:00,VALID,917.914,VALID,0,VALID,100,VALID,-0.0509425,VALID,19.7638,VALID,56,VALID,0.254297,
2005-01-14, 00:28:00,VALID,917.922,VALID,0,VALID,100,VALID,-0.0679233,VALID,19.7705,VALID,56,VALID,0.22904,
2005-01-14, 00:29:00,VALID,917.919,VALID,0,VALID,100,VALID,-0.0679233,VALID,19.7805,VALID,37,VALID,0.438953,
2005-01-14, 00:30:00,VALID,917.901,VALID,0,VALID,100,VALID,-0.101885,VALID,19.7705,VALID,344,VALID,0.233817,
2005-01-14, 00:31:00,VALID,917.869,VALID,0,VALID,100,VALID,-0.0509425,VALID,19.7678,VALID,344,VALID,0,
2005-01-14, 00:32:00,VALID,917.859,VALID,0,VALID,100,VALID,-0.0679233,VALID,19.7514,VALID,344,VALID,0,
2005-01-14, 00:33:00,VALID,917.833,VALID,0,VALID,100,VALID,-0.0679233,VALID,19.735,VALID,344,VALID,0,
2005-01-14, 00:34:00,VALID,917.838,VALID,0,VALID,100,VALID,-0.0339617,VALID,19.7248,VALID,344,VALID,0,
2005-01-14, 00:35:00,VALID,917.845,VALID,0,VALID,100,VALID,0.0339617,VALID,19.6977,VALID,344,VALID,0,
2005-01-14, 00:36:00,VALID,917.847,VALID,0,VALID,100,VALID,0.0169808,VALID,19.6888,VALID,344,VALID,0.0683594,
2005-01-14, 00:37:00,VALID,917.849,VALID,0,VALID,100,VALID,0.0339617,VALID,19.6334,VALID,344,VALID,0.0365189,
2005-01-14, 00:38:00,VALID,917.836,VALID,0,VALID,100,VALID,0.0339617,VALID,19.546,VALID,344,VALID,0.0421875,
2005-01-14, 00:39:00,VALID,917.828,VALID,0,VALID,100,VALID,0,VALID,19.4692,VALID,344,VALID,0.0460258,
2005-01-14, 00:40:00,VALID,917.809,VALID,0,VALID,100,VALID,0.0339617,VALID,19.4076,VALID,344,VALID,0.282522,
2005-01-14, 00:41:00,VALID,917.785,VALID,0,VALID,100,VALID,0,VALID,19.3691,VALID,349,VALID,0.640988,
2005-01-14, 00:42:00,VALID,917.759,VALID,0,VALID,100,VALID,0.0169808,VALID,19.3331,VALID,27,VALID,0.896949,
2005-01-14, 00:43:00,VALID,917.73,VALID,0,VALID,100,VALID,0,VALID,19.3656,VALID,30,VALID,0.92242,
2005-01-14, 00:44:00,VALID,917.703,VALID,0,VALID,100,VALID,0.0509425,VALID,19.3758,VALID,35,VALID,0.92488,
2005-01-14, 00:45:00,VALID,917.683,VALID,0,VALID,100,VALID,0.0339617,VALID,19.3753,VALID,44,VALID,0.845982,
2005-01-14, 00:46:00,VALID,917.651,VALID,0,VALID,100,VALID,0.0169808,VALID,19.3914,VALID,47,VALID,0.642287,
2005-01-14, 00:47:00,VALID,917.638,VALID,0,VALID,100,VALID,0.0509425,VALID,19.4016,VALID,50,VALID,0.554129,
2005-01-14, 00:48:00,VALID,917.62,VALID,0,VALID,100,VALID,0.0169808,VALID,19.3887,VALID,50,VALID,0.422805,
2005-01-14, 00:49:00,VALID,917.613,VALID,0,VALID,100,VALID,-0.0339617,VALID,19.3668,VALID,50,VALID,0.339844,
2005-01-14, 00:50:00,VALID,917.63,VALID,0,VALID,100,VALID,-0.101885,VALID,19.332,VALID,50,VALID,0.217901,
2005-01-14, 00:51:00,VALID,917.644,VALID,0,VALID,100,VALID,-0.0849042,VALID,19.2543,VALID,50,VALID,0.143169,
2005-01-14, 00:52:00,VALID,917.655,VALID,0,VALID,100,VALID,-0.101885,VALID,19.2061,VALID,50,VALID,0.0900298,
2005-01-14, 00:53:00,VALID,917.661,VALID,0,VALID,100,VALID,-0.101885,VALID,19.1803,VALID,50,VALID,0.286585,
2005-01-14, 00:54:00,VALID,917.665,VALID,0,VALID,100,VALID,-0.0679233,VALID,19.1673,VALID,50,VALID,0.343056,
2005-01-14, 00:55:00,VALID,917.654,VALID,0,VALID,100,VALID,-0.101885,VALID,19.1805,VALID,50,VALID,0.395089,
2005-01-14, 00:56:00,VALID,917.646,VALID,0,VALID,100,VALID,-0.101885,VALID,19.2029,VALID,50,VALID,0.605078,
2005-01-14, 00:57:00,VALID,917.641,VALID,0,VALID,100,VALID,-0.0849042,VALID,19.303,VALID,56,VALID,0.694271,
2005-01-14, 00:58:00,VALID,917.628,VALID,0,VALID,100,VALID,-0.0849042,VALID,19.3999,VALID,59,VALID,0.751598,
2005-01-14, 00:59:00,VALID,917.634,VALID,0,VALID,100,VALID,-0.0849042,VALID,19.3869,VALID,59,VALID,0.653274,
2005-01-14, 01:00:00,VALID,917.638,VALID,0,VALID,100,VALID,-0.101885,VALID,19.339,VALID,59,VALID,0.704215,
2005-01-14, 01:01:00,VALID,917.632,VALID,0,VALID,100,VALID,-0.101885,VALID,19.4061,VALID,59,VALID,0.790483,
2005-01-14, 01:02:00,VALID,917.627,VALID,0,VALID,100,VALID,-0.101885,VALID,19.4672,VALID,59,VALID,0.420007,
2005-01-14, 01:03:00,VALID,917.635,VALID,0,VALID,100,VALID,-0.101885,VALID,19.3159,VALID,59,VALID,0.341667,
2005-01-14, 01:04:00,VALID,917.619,VALID,0,VALID,100,VALID,-0.0339617,VALID,19.1602,VALID,59,VALID,0.327195,
2005-01-14, 01:05:00,VALID,917.624,VALID,0,VALID,100,VALID,-0.0339617,VALID,19.0903,VALID,59,VALID,0.308308,
2005-01-14, 01:06:00,VALID,917.604,VALID,0,VALID,100,VALID,-0.101885,VALID,19.0998,VALID,59,VALID,0.429297,
2005-01-14, 01:07:00,VALID,917.606,VALID,0,VALID,100,VALID,-0.0339617,VALID,19.103,VALID,59,VALID,0.526228,
2005-01-14, 01:08:00,VALID,917.585,VALID,0,VALID,100,VALID,0,VALID,19.1159,VALID,59,VALID,0.513207,
2005-01-14, 01:09:00,VALID,917.59,VALID,0,VALID,100,VALID,-0.101885,VALID,19.1092,VALID,59,VALID,0.488715,
2005-01-14, 01:10:00,VALID,917.58,VALID,0,VALID,100,VALID,-0.0849042,VALID,19.0772,VALID,59,VALID,0.544212,
2005-01-14, 01:11:00,VALID,917.577,VALID,0,VALID,100,VALID,-0.0679233,VALID,19.0546,VALID,59,VALID,0.38899,
2005-01-14, 01:12:00,VALID,917.584,VALID,0,VALID,100,VALID,-0.0679233,VALID,19.1226,VALID,59,VALID,0.401325,
2005-01-14, 01:13:00,VALID,917.594,VALID,0,VALID,100,VALID,-0.0339617,VALID,19.294,VALID,16,VALID,0.421875,
2005-01-14, 01:14:00,VALID,917.593,VALID,0,VALID,100,VALID,-0.0679233,VALID,19.3869,VALID,4,VALID,0.444111,
2005-01-14, 01:15:00,VALID,917.594,VALID,0,VALID,100,VALID,-0.0339617,VALID,19.4811,VALID,1,VALID,0.275923,
2005-01-14, 01:16:00,VALID,917.593,VALID,0,VALID,100,VALID,-0.0679233,VALID,19.5261,VALID,1,VALID,0.14169,
2005-01-14, 01:17:00,VALID,917.588,VALID,0,VALID,100,VALID,-0.0849042,VALID,19.5618,VALID,1,VALID,0.170277,
2005-01-14, 01:18:00,VALID,917.593,VALID,0,VALID,100,VALID,-0.0679233,VALID,19.5613,VALID,1,VALID,0.213481,
2005-01-14, 01:19:00,VALID,917.601,VALID,0,VALID,100,VALID,-0.0339617,VALID,19.5678,VALID,350,VALID,0.374467,
2005-01-14, 01:20:00,VALID,917.592,VALID,0,VALID,100,VALID,-0.0849042,VALID,19.613,VALID,19,VALID,0.608103,
2005-01-14, 01:21:00,VALID,917.603,VALID,0,VALID,100,VALID,-0.0679233,VALID,19.6391,VALID,334,VALID,0.651456,
2005-01-14, 01:22:00,VALID,917.617,VALID,0,VALID,100,VALID,-0.0509425,VALID,19.6456,VALID,327,VALID,0.560826,
2005-01-14, 01:23:00,VALID,917.638,VALID,0,VALID,100,VALID,-0.0849042,VALID,19.6582,VALID,342,VALID,0.584985,
2005-01-14, 01:24:00,VALID,917.638,VALID,0,VALID,100,VALID,-0.0509425,VALID,19.6878,VALID,342,VALID,0.435243,
2005-01-14, 01:25:00,VALID,917.641,VALID,0,VALID,100,VALID,-0.0679233,VALID,19.6938,VALID,337,VALID,0.254861,
2005-01-14, 01:26:00,VALID,917.655,VALID,0,VALID,100,VALID,-0.0679233,VALID,19.6808,VALID,337,VALID,0.182706,
2005-01-14, 01:27:00,VALID,917.647,VALID,0,VALID,100,VALID,-0.0169808,VALID,19.7069,VALID,337,VALID,0.0490234,
2005-01-14, 01:28:00,VALID,917.632,VALID,0,VALID,100,VALID,-0.0509425,VALID,19.7298,VALID,337,VALID,0,
2005-01-14, 01:29:00,VALID,917.615,VALID,0,VALID,100,VALID,-0.0339617,VALID,19.7194,VALID,337,VALID,0,
2005-01-14, 01:30:00,VALID,917.604,VALID,0,VALID,100,VALID,-0.0169808,VALID,19.7363,VALID,337,VALID,0,
2005-01-14, 01:31:00,VALID,917.596,VALID,0,VALID,100,VALID,-0.0509425,VALID,19.7263,VALID,337,VALID,0,
2005-01-14, 01:32:00,VALID,917.581,VALID,0,VALID,100,VALID,-0.0509425,VALID,19.7261,VALID,337,VALID,0,
2005-01-14, 01:33:00,VALID,917.574,VALID,0,VALID,100,VALID,-0.0509425,VALID,19.7363,VALID,337,VALID,0,
2005-01-14, 01:34:00,VALID,917.544,VALID,0,VALID,100,VALID,-0.0169808,VALID,19.7449,VALID,337,VALID,0,
2005-01-14, 01:35:00,VALID,917.537,VALID,0,VALID,100,VALID,0.0339617,VALID,19.7375,VALID,337,VALID,0,
2005-01-14, 01:36:00,VALID,917.519,VALID,0,VALID,100,VALID,0.0849042,VALID,19.7507,VALID,337,VALID,0,
2005-01-14, 01:37:00,VALID,917.49,VALID,0,VALID,100,VALID,0.0339617,VALID,19.7765,VALID,337,VALID,0.0928416,
2005-01-14, 01:38:00,VALID,917.467,VALID,0,VALID,100,VALID,0.0339617,VALID,19.7889,VALID,337,VALID,0.41369,
2005-01-14, 01:39:00,VALID,917.448,VALID,0,VALID,100,VALID,0.0339617,VALID,19.7894,VALID,338,VALID,0.305432,
2005-01-14, 01:40:00,VALID,917.42,VALID,0,VALID,100,VALID,0.0169808,VALID,19.7926,VALID,338,VALID,0.311328,
2005-01-14, 01:41:00,VALID,917.393,VALID,0,VALID,100,VALID,0.0169808,VALID,19.7929,VALID,338,VALID,0.305051,
2005-01-14, 01:42:00,VALID,917.383,VALID,0,VALID,100,VALID,0.0339617,VALID,19.8023,VALID,338,VALID,0.236737,
2005-01-14, 01:43:00,VALID,917.388,VALID,0,VALID,100,VALID,0.0509425,VALID,19.8187,VALID,338,VALID,0.22619,
2005-01-14, 01:44:00,VALID,917.389,VALID,0,VALID,100,VALID,0.0509425,VALID,19.8148,VALID,338,VALID,0.0522693,
2005-01-14, 01:45:00,VALID,917.387,VALID,0,VALID,100,VALID,0.0509425,VALID,19.8051,VALID,338,VALID,0.0314405,
2005-01-14, 01:46:00,VALID,917.383,VALID,0,VALID,100,VALID,0.0339617,VALID,19.8085,VALID,338,VALID,0,
2005-01-14, 01:47:00,VALID,917.377,VALID,0,VALID,100,VALID,0.0169808,VALID,19.812,VALID,338,VALID,0,
2005-01-14, 01:48:00,VALID,917.36,VALID,0,VALID,100,VALID,0.0679233,VALID,19.8026,VALID,338,VALID,0,
2005-01-14, 01:49:00,VALID,917.345,VALID,0,VALID,100,VALID,0.0169808,VALID,19.7864,VALID,338,VALID,0.246548,
2005-01-14, 01:50:00,VALID,917.32,VALID,0,VALID,100,VALID,-0.0169808,VALID,19.7969,VALID,338,VALID,0.329545,
2005-01-14, 01:51:00,VALID,917.306,VALID,0,VALID,100,VALID,-0.0169808,VALID,19.7867,VALID,338,VALID,0.0737424,
2005-01-14, 01:52:00,VALID,917.285,VALID,0,VALID,100,VALID,-0.0339617,VALID,19.7969,VALID,338,VALID,0,
2005-01-14, 01:53:00,VALID,917.264,VALID,0,VALID,100,VALID,-0.0679233,VALID,19.8098,VALID,338,VALID,0,
2005-01-14, 01:54:00,VALID,917.255,VALID,0,VALID,100,VALID,-0.0679233,VALID,19.8098,VALID,338,VALID,0.0942827,
2005-01-14, 01:55:00,VALID,917.232,VALID,0,VALID,100,VALID,-0.0339617,VALID,19.8001,VALID,338,VALID,0.307422,
2005-01-14, 01:56:00,VALID,917.22,VALID,0,VALID,100,VALID,-0.0509425,VALID,19.7971,VALID,338,VALID,0.432173,
2005-01-14, 01:57:00,VALID,917.199,VALID,0,VALID,100,VALID,-0.0339617,VALID,19.7676,VALID,338,VALID,0.402004,
2005-01-14, 01:58:00,VALID,917.206,VALID,0,VALID,100,VALID,-0.0679233,VALID,19.7611,VALID,338,VALID,0.273251,
2005-01-14, 01:59:00,VALID,917.176,VALID,0,VALID,100,VALID,-0.0339617,VALID,19.7646,VALID,338,VALID,0.176563,
2005-01-14, 02:00:00,VALID,917.158,VALID,0,VALID,100,VALID,-0.0339617,VALID,19.7676,VALID,338,VALID,0.20258,
2005-01-14, 02:01:00,VALID,917.126,VALID,0,VALID,100,VALID,-0.0509425,VALID,19.7775,VALID,338,VALID,0.271701,
2005-01-14, 02:02:00,VALID,917.104,VALID,0,VALID,100,VALID,-0.0849042,VALID,19.7807,VALID,338,VALID,0.650534,
2005-01-14, 02:03:00,VALID,917.092,VALID,0,VALID,100,VALID,-0.0849042,VALID,19.7643,VALID,339,VALID,0.760121,
2005-01-14, 02:04:00,VALID,917.082,VALID,0,VALID,100,VALID,-0.0509425,VALID,19.7643,VALID,339,VALID,0.586128,
2005-01-14, 02:05:00,VALID,917.067,VALID,0,VALID,100,VALID,-0.0169808,VALID,19.7472,VALID,339,VALID,0.57279,
2005-01-14, 02:06:00,VALID,917.073,VALID,0,VALID,100,VALID,0,VALID,19.7437,VALID,339,VALID,0.471112,
2005-01-14, 02:07:00,VALID,917.074,VALID,0,VALID,100,VALID,0,VALID,19.7407,VALID,62,VALID,0.386083,
2005-01-14, 02:08:00,VALID,917.074,VALID,0,VALID,100,VALID,0,VALID,19.7442,VALID,104,VALID,0.232887,
2005-01-14, 02:09:00,VALID,917.095,VALID,0,VALID,100,VALID,0,VALID,19.7377,VALID,104,VALID,0.0816592,
2005-01-14, 02:10:00,VALID,917.089,VALID,0,VALID,100,VALID,-0.0169808,VALID,19.7382,VALID,104,VALID,0.0031622,
2005-01-14, 02:11:00,VALID,917.08,VALID,0,VALID,100,VALID,-0.0169808,VALID,19.7345,VALID,104,VALID,0,
2005-01-14, 02:12:00,VALID,917.086,VALID,0,VALID,100,VALID,-0.0339617,VALID,19.7345,VALID,104,VALID,0,
2005-01-14, 02:13:00,VALID,917.079,VALID,0,VALID,100,VALID,0,VALID,19.7251,VALID,104,VALID,0.0969122,
2005-01-14, 02:14:00,VALID,917.079,VALID,0.2,VALID,100,VALID,0,VALID,19.7246,VALID,104,VALID,0.483803,
2005-01-14, 02:15:00,VALID,917.067,VALID,0,VALID,100,VALID,-0.0169808,VALID,19.7278,VALID,80,VALID,0.64826,
2005-01-14, 02:16:00,VALID,917.061,VALID,0,VALID,100,VALID,0,VALID,19.7054,VALID,54,VALID,0.656059,
2005-01-14, 02:17:00,VALID,917.047,VALID,0,VALID,100,VALID,-0.0509425,VALID,19.6796,VALID,43,VALID,0.686773,
2005-01-14, 02:18:00,VALID,917.048,VALID,0,VALID,100,VALID,0,VALID,19.6694,VALID,24,VALID,0.654948,
2005-01-14, 02:19:00,VALID,917.034,VALID,0,VALID,100,VALID,0,VALID,19.6369,VALID,24,VALID,0.50651,
2005-01-14, 02:20:00,VALID,917.03,VALID,0,VALID,100,VALID,-0.0169808,VALID,19.6307,VALID,24,VALID,0.314317,
2005-01-14, 02:21:00,VALID,917.023,VALID,0,VALID,100,VALID,0.0169808,VALID,19.6245,VALID,24,VALID,0.0477834,
2005-01-14, 02:22:00,VALID,917.011,VALID,0,VALID,100,VALID,0,VALID,19.6207,VALID,24,VALID,0,
2005-01-14, 02:23:00,VALID,917.013,VALID,0,VALID,100,VALID,0,VALID,19.621,VALID,24,VALID,0.000381098,
2005-01-14, 02:24:00,VALID,917.001,VALID,0,VALID,100,VALID,-0.0169808,VALID,19.6182,VALID,24,VALID,0.0845353,
2005-01-14, 02:25:00,VALID,916.991,VALID,0,VALID,100,VALID,0,VALID,19.6148,VALID,24,VALID,0.113839,
2005-01-14, 02:26:00,VALID,916.968,VALID,0,VALID,100,VALID,-0.0169808,VALID,19.5986,VALID,24,VALID,0.253162,
2005-01-14, 02:27:00,VALID,916.964,VALID,0,VALID,100,VALID,0,VALID,19.5954,VALID,24,VALID,0.247275,
2005-01-14, 02:28:00,VALID,916.955,VALID,0,VALID,100,VALID,0,VALID,19.6086,VALID,24,VALID,0.28924,
2005-01-14, 02:29:00,VALID,916.937,VALID,0,VALID,100,VALID,0,VALID,19.6212,VALID,24,VALID,0.299679,
2005-01-14, 02:30:00,VALID,916.929,VALID,0,VALID,100,VALID,-0.0169808,VALID,19.6409,VALID,24,VALID,0.347842,
2005-01-14, 02:31:00,VALID,916.929,VALID,0,VALID,100,VALID,-0.0169808,VALID,19.6304,VALID,24,VALID,0.380556,
2005-01-14, 02:32:00,VALID,916.931,VALID,0,VALID,100,VALID,-0.0169808,VALID,19.6473,VALID,24,VALID,0.307031,
2005-01-14, 02:33:00,VALID,916.925,VALID,0,VALID,100,VALID,0,VALID,19.6535,VALID,24,VALID,0.400746,
2005-01-14, 02:34:00,VALID,916.9,VALID,0,VALID,100,VALID,0,VALID,19.6568,VALID,25,VALID,0.500355,
2005-01-14, 02:35:00,VALID,916.875,VALID,0,VALID,100,VALID,0.0169808,VALID,19.65,VALID,33,VALID,0.502858,
2005-01-14, 02:36:00,VALID,916.868,VALID,0,VALID,100,VALID,0.0169808,VALID,19.6302,VALID,36,VALID,0.457485,
2005-01-14, 02:37:00,VALID,916.839,VALID,0,VALID,100,VALID,0,VALID,19.6341,VALID,36,VALID,0.395064,
2005-01-14, 02:38:00,VALID,916.831,VALID,0,VALID,100,VALID,0,VALID,19.614,VALID,36,VALID,0.378534,
2005-01-14, 02:39:00,VALID,916.809,VALID,0,VALID,100,VALID,0.0169808,VALID,19.6113,VALID,36,VALID,0.296689,
2005-01-14, 02:40:00,VALID,916.787,VALID,0,VALID,100,VALID,0.0169808,VALID,19.615,VALID,36,VALID,0.235283,
2005-01-14, 02:41:00,VALID,916.771,VALID,0,VALID,100,VALID,0,VALID,19.6081,VALID,60,VALID,0.610283,
2005-01-14, 02:42:00,VALID,916.755,VALID,0,VALID,100,VALID,-0.0339617,VALID,19.612,VALID,90,VALID,0.436967,
2005-01-14, 02:43:00,VALID,916.745,VALID,0,VALID,100,VALID,0,VALID,19.6215,VALID,91,VALID,0.355841,
2005-01-14, 02:44:00,VALID,916.733,VALID,0,VALID,100,VALID,-0.0169808,VALID,19.6413,VALID,91,VALID,0.379764,
2005-01-14, 02:45:00,VALID,916.711,VALID,0,VALID,100,VALID,0,VALID,19.6374,VALID,99,VALID,0.65904,
2005-01-14, 02:46:00,VALID,916.702,VALID,0,VALID,100,VALID,-0.0509425,VALID,19.6476,VALID,107,VALID,0.617018,
2005-01-14, 02:47:00,VALID,916.707,VALID,0,VALID,100,VALID,0,VALID,19.6505,VALID,109,VALID,0.574396,
2005-01-14, 02:48:00,VALID,916.724,VALID,0,VALID,100,VALID,0,VALID,19.6729,VALID,110,VALID,0.405185,
2005-01-14, 02:49:00,VALID,916.728,VALID,0,VALID,100,VALID,0,VALID,19.6933,VALID,110,VALID,0.484375,
2005-01-14, 02:50:00,VALID,916.736,VALID,0,VALID,100,VALID,-0.0169808,VALID,19.6925,VALID,110,VALID,0.444931,
2005-01-14, 02:51:00,VALID,916.73,VALID,0,VALID,100,VALID,-0.0169808,VALID,19.6987,VALID,142,VALID,0.695503,
2005-01-14, 02:52:00,VALID,916.722,VALID,0,VALID,100,VALID,0,VALID,19.7154,VALID,144,VALID,0.682546,
2005-01-14, 02:53:00,VALID,916.711,VALID,0,VALID,100,VALID,0,VALID,19.7216,VALID,136,VALID,0.728198,
2005-01-14, 02:54:00,VALID,916.702,VALID,0,VALID,100,VALID,0,VALID,19.7216,VALID,129,VALID,0.557292,
2005-01-14, 02:55:00,VALID,916.707,VALID,0,VALID,100,VALID,0.0169808,VALID,19.7276,VALID,120,VALID,0.475654,
2005-01-14, 02:56:00,VALID,916.699,VALID,0,VALID,100,VALID,-0.0169808,VALID,19.7574,VALID,111,VALID,0.467773,
2005-01-14, 02:57:00,VALID,916.696,VALID,0,VALID,100,VALID,0,VALID,19.7474,VALID,81,VALID,0.192882,
2005-01-14, 02:58:00,VALID,916.687,VALID,0,VALID,100,VALID,0,VALID,19.7703,VALID,82,VALID,0.119549,
2005-01-14, 02:59:00,VALID,916.685,VALID,0,VALID,100,VALID,0,VALID,19.7631,VALID,107,VALID,0.56321,
2005-01-14, 03:00:00,VALID,916.679,VALID,0,VALID,100,VALID,-0.0169808,VALID,19.7668,VALID,107,VALID,0.369048,
2005-01-14, 03:01:00,VALID,916.679,VALID,0,VALID,100,VALID,0,VALID,19.7633,VALID,107,VALID,0.594993,
2005-01-14, 03:02:00,VALID,916.697,VALID,0,VALID,100,VALID,-0.0339617,VALID,19.7566,VALID,107,VALID,0.418527,
2005-01-14, 03:03:00,VALID,916.683,VALID,0,VALID,100,VALID,0,VALID,19.7733,VALID,95,VALID,0.478609,
2005-01-14, 03:04:00,VALID,916.675,VALID,0,VALID,100,VALID,0,VALID,19.7695,VALID,93,VALID,0.581676,
2005-01-14, 03:05:00,VALID,916.663,VALID,0,VALID,100,VALID,0.0169808,VALID,19.7763,VALID,94,VALID,0.272135,
2005-01-14, 03:06:00,VALID,916.652,VALID,0,VALID,100,VALID,-0.0169808,VALID,19.7862,VALID,94,VALID,0.138021,
2005-01-14, 03:07:00,VALID,916.633,VALID,0,VALID,100,VALID,0,VALID,19.7892,VALID,94,VALID,0.442578,
2005-01-14, 03:08:00,VALID,916.616,VALID,0,VALID,100,VALID,-0.0169808,VALID,19.7862,VALID,95,VALID,0.363582,
2005-01-14, 03:09:00,VALID,916.591,VALID,0,VALID,100,VALID,0.0169808,VALID,19.7991,VALID,95,VALID,0.254278,
2005-01-14, 03:10:00,VALID,916.565,VALID,0,VALID,100,VALID,0,VALID,19.7984,VALID,141,VALID,0.589571,
2005-01-14, 03:11:00,VALID,916.53,VALID,0,VALID,100,VALID,0.0169808,VALID,19.7984,VALID,148,VALID,0.572976,
2005-01-14, 03:12:00,VALID,916.505,VALID,0,VALID,100,VALID,0.0169808,VALID,19.8085,VALID,145,VALID,0.611328,
2005-01-14, 03:13:00,VALID,916.487,VALID,0,VALID,100,VALID,0,VALID,19.7991,VALID,159,VALID,0.839749,
2005-01-14, 03:14:00,VALID,916.454,VALID,0,VALID,100,VALID,-0.0169808,VALID,19.7926,VALID,157,VALID,0.823847,
2005-01-14, 03:15:00,VALID,916.431,VALID,0,VALID,100,VALID,0,VALID,19.7862,VALID,152,VALID,0.843178,
2005-01-14, 03:16:00,VALID,916.417,VALID,0,VALID,100,VALID,-0.0339617,VALID,19.7827,VALID,154,VALID,0.700639,
2005-01-14, 03:17:00,VALID,916.397,VALID,0,VALID,100,VALID,-0.0169808,VALID,19.7695,VALID,153,VALID,0.74379,
2005-01-14, 03:18:00,VALID,916.382,VALID,0,VALID,100,VALID,-0.0169808,VALID,19.7854,VALID,153,VALID,0.603981,
2005-01-14, 03:19:00,VALID,916.355,VALID,0,VALID,100,VALID,0,VALID,19.7859,VALID,148,VALID,0.614281,
2005-01-14, 03:20:00,VALID,916.32,VALID,0,VALID,100,VALID,0,VALID,19.7832,VALID,134,VALID,0.754616,
2005-01-14, 03:21:00,VALID,916.317,VALID,0,VALID,100,VALID,0,VALID,19.7797,VALID,127,VALID,0.878634,
2005-01-14, 03:22:00,VALID,916.311,VALID,0,VALID,100,VALID,-0.0169808,VALID,19.7569,VALID,128,VALID,0.754906,
2005-01-14, 03:23:00,VALID,916.315,VALID,0,VALID,100,VALID,0,VALID,19.7435,VALID,135,VALID,0.596875,
2005-01-14, 03:24:00,VALID,916.318,VALID,0,VALID,100,VALID,-0.0169808,VALID,19.7474,VALID,143,VALID,0.420117,
2005-01-14, 03:25:00,VALID,916.337,VALID,0,VALID,100,VALID,0,VALID,19.731,VALID,143,VALID,0.300327,
2005-01-14, 03:26:00,VALID,916.34,VALID,0,VALID,100,VALID,0,VALID,19.7149,VALID,143,VALID,0.339063,
2005-01-14, 03:27:00,VALID,916.346,VALID,0,VALID,100,VALID,-0.0339617,VALID,19.7084,VALID,143,VALID,0.291969,
2005-01-14, 03:28:00,VALID,916.344,VALID,0,VALID,100,VALID,-0.0169808,VALID,19.6958,VALID,132,VALID,0.26181,
2005-01-14, 03:29:00,VALID,916.361,VALID,0,VALID,100,VALID,0,VALID,19.6761,VALID,110,VALID,0.446057,
2005-01-14, 03:30:00,VALID,916.358,VALID,0,VALID,100,VALID,0,VALID,19.6667,VALID,100,VALID,0.633765,
2005-01-14, 03:31:00,VALID,916.365,VALID,0,VALID,100,VALID,0,VALID,19.6669,VALID,97,VALID,0.831555,
2005-01-14, 03:32:00,VALID,916.351,VALID,0,VALID,100,VALID,0,VALID,19.6438,VALID,97,VALID,1.03445,
2005-01-14, 03:33:00,VALID,916.344,VALID,0,VALID,100,VALID,0,VALID,19.6411,VALID,97,VALID,0.92934,
2005-01-14, 03:34:00,VALID,916.306,VALID,0,VALID,100,VALID,0,VALID,19.618,VALID,89,VALID,0.983422,
2005-01-14, 03:35:00,VALID,916.293,VALID,0,VALID,100,VALID,0.0169808,VALID,19.615,VALID,87,VALID,1.06269,
2005-01-14, 03:36:00,VALID,916.279,VALID,0,VALID,100,VALID,-0.0169808,VALID,19.5991,VALID,92,VALID,1.17839,
2005-01-14, 03:37:00,VALID,916.265,VALID,0,VALID,100,VALID,-0.0169808,VALID,19.5924,VALID,91,VALID,1.25279,
2005-01-14, 03:38:00,VALID,916.253,VALID,0,VALID,100,VALID,0,VALID,19.5765,VALID,91,VALID,1.18786,
2005-01-14, 03:39:00,VALID,916.24,VALID,0,VALID,100,VALID,0,VALID,19.5569,VALID,98,VALID,0.852273,
2005-01-14, 03:40:00,VALID,916.239,VALID,0,VALID,100,VALID,0,VALID,19.5569,VALID,121,VALID,1.12853,
2005-01-14, 03:41:00,VALID,916.236,VALID,0,VALID,100,VALID,0,VALID,19.5534,VALID,125,VALID,0.958594,
2005-01-14, 03:42:00,VALID,916.216,VALID,0,VALID,100,VALID,0,VALID,19.5599,VALID,124,VALID,1.15116,